Location: Cartignies
(50.0929°N, 3.8447°E)
Time: 13:57:57
(UTC+00:00)

SL-16 R/B - Pass Details

Date: 12 January 2026
Orbit: 841 x 845 km, 71.0° (Epoch: 15 February)

Event Time Altitude Azimuth Distance (km) Brightness Sun altitude
Rises 18:50:04 0° 329° (NNW) 3,413 5.7 -25.4°
Reaches altitude 10° 18:54:33 10° 2° (N) 2,476 4.6 -26.1°
Enters shadow 18:55:05 11° 7° (N) 2,423 4.5 -26.2°
